Krvavec, Slovenia 16 day weather forecast

Slopes altitude range 1450 m - 1970m

Number of lifts: 11 Pistes: 30km

In some cases the lift and piste totals shown are for the ski domain (e.g. Three Valleys) rather than individual resort (e.g. Courchevel)

Overview

The 16 day weather forecast is fully updated 4 times every day.

    • Sun 26 MAY 2019
    • Sun 26
    • 12C 23C
    • Mon 27 MAY 2019
    • Mon 27
    • 12C 16C
    • Tue 28 MAY 2019
    • Tue 28
    • 11C 16C
    • Wed 29 MAY 2019
    • Wed 29
    • 6C 10C
    • Thu 30 MAY 2019
    • Thu 30
    • 8C 13C
    • Fri 31 MAY 2019
    • Fri 31
    • 10C 21C
    • Sat 01 JUN 2019
    • Sat 01
    • 8C 16C
    • Sun 02 JUN 2019
    • Sun 02
    • 8C 18C
    • Mon 03 JUN 2019
    • Mon 03
    • 11C 18C
    • Tue 04 JUN 2019
    • Tue 04
    • 12C 19C
    • Wed 05 JUN 2019
    • Wed 05
    • 14C 21C
    • Thu 06 JUN 2019
    • Thu 06
    • 14C 18C
    • Fri 07 JUN 2019
    • Fri 07
    • 15C 19C
    • Sat 08 JUN 2019
    • Sat 08
    • 16C 22C
    • Sun 09 JUN 2019
    • Sun 09
    • 16C 25C
    • Mon 10 JUN 2019
    • Mon 10
    • 18C 23C

Date:

Time Type 0°C level Temp Chill Snow Cloud Speed Gust Dir Press
12:00 2990m 23°C 23_3 0cm 87% 3mph 5mph 1014mB
15:00 3113m 20°C 20_4 0cm 94% 4mph 6mph 1013mB
18:00 3152m 20°C 20_2 0cm 97% 2mph 3mph 1013mB
21:00 3104m 10°C 10_1 0cm 100% 1mph 2mph 1015mB
0:00 3102m 10°C 10_1 0cm 100% 1mph 1mph 1014mB
3:00 3112m 10°C 10_1 0cm 100% 1mph 1mph 1013mB
6:00 3149m 10°C 10_1 0cm 99% 1mph 1mph 1012mB
9:00 3240m 12°C 12_3 0cm 95% 3mph 3mph 1011mB
12:00 3228m 16°C 16_4 0cm 94% 4mph 5mph 1011mB
15:00 3174m 14°C 14_3 0cm 99% 3mph 5mph 1010mB
18:00 3035m 14°C 14_2 0cm 100% 2mph 3mph 1008mB
21:00 2986m 10°C 10_3 0cm 100% 3mph 4mph 1008mB
0:00 2992m 10°C 10_1 0cm 96% 1mph 1mph 1007mB
3:00 2962m 9°C 9_1 0cm 99% 1mph 1mph 1005mB
6:00 2984m 9°C 9_1 0cm 98% 1mph 2mph 1005mB
9:00 2945m 11°C 11_2 0cm 92% 2mph 3mph 1005mB
12:00 2937m 16°C 16_4 0cm 92% 4mph 6mph 1004mB
15:00 2921m 16°C 16_3 0cm 78% 3mph 5mph 1004mB
18:00 2833m 16°C 16_2 0cm 87% 2mph 3mph 1005mB
21:00 2546m 9°C 9_3 0cm 100% 3mph 7mph 1008mB
0:00 2293m 7°C 7_3 0cm 100% 3mph 7mph 1009mB
3:00 2247m 6°C 6_4 0cm 100% 4mph 8mph 1009mB
6:00 2195m 6°C 6_3 0cm 100% 3mph 6mph 1011mB
9:00 2255m 6°C 6_3 0cm 100% 3mph 5mph 1013mB
12:00 2275m 10°C 10_1 0cm 100% 1mph 2mph 1014mB
15:00 2328m 10°C 10_3 0cm 100% 3mph 6mph 1014mB
18:00 2316m 11°C 11_3 0cm 100% 3mph 4mph 1016mB
21:00 2291m 7°C 7_3 0cm 100% 3mph 5mph 1019mB
0:00 2286m 6°C 6_3 0cm 100% 3mph 4mph 1019mB
3:00 2263m 5°C 5_3 0cm 98% 3mph 3mph 1020mB
6:00 2256m 5°C 5_3 0cm 98% 3mph 5mph 1021mB
9:00 2255m 8°C 8_5 0cm 92% 5mph 10mph 1022mB
12:00 2376m 13°C 13_6 0cm 95% 6mph 12mph 1021mB
15:00 2510m 13°C 13_5 0cm 98% 5mph 9mph 1021mB
18:00 2540m 14°C 14_2 0cm 87% 2mph 3mph 1022mB
21:00 2528m 7°C 7_2 0cm 53% 2mph 3mph 1024mB
0:00 2520m 5°C 5_2 0cm 32% 2mph 3mph 1023mB
3:00 2649m 4°C 4_2 0cm 0% 2mph 3mph 1023mB
6:00 2765m 3°C 3_2 0cm 31% 2mph 3mph 1022mB
9:00 2808m 10°C 10_2 0cm 73% 2mph 3mph 1021mB
12:00 2811m 21°C 21_3 0cm 72% 3mph 6mph 1020mB
15:00 2911m 17°C 17_5 0cm 76% 5mph 9mph 1019mB
18:00 2995m 17°C 17_4 0cm 68% 4mph 5mph 1020mB
21:00 2753m 10°C 10_4 0cm 78% 4mph 7mph 1023mB
0:00 2502m 8°C 8_4 0cm 83% 4mph 7mph 1025mB
3:00 2313m 5°C 5_5 0cm 19% 5mph 7mph 1026mB
6:00 2106m 5°C 5_6 0cm 27% 6mph 10mph 1027mB
9:00 2117m 8°C 8_8 0cm 0% 8mph 19mph 1027mB
12:00 2399m 16°C 16_12 0cm 0% 12mph 21mph 1025mB
15:00 2410m 16°C 16_11 0cm 0% 11mph 21mph 1025mB
18:00 2222m 16°C 16_7 0cm 0% 7mph 19mph 1027mB
21:00 2176m 5°C 5_5 0cm 0% 5mph 6mph 1029mB
0:00 2206m 3°C 3_4 0cm 0% 4mph 5mph 1030mB
3:00 2368m 2°C 2_4 0cm 0% 4mph 5mph 1030mB
6:00 2465m 2°C 2_4 0cm 0% 4mph 7mph 1028mB
9:00 2325m 8°C 8_6 0cm 0% 6mph 12mph 1027mB
12:00 2647m 18°C 18_8 0cm 0% 8mph 14mph 1025mB
15:00 2726m 18°C 18_8 0cm 0% 8mph 13mph 1024mB
18:00 2624m 18°C 18_5 0cm 0% 5mph 8mph 1025mB
21:00 2696m 6°C 6_6 0cm 1% 6mph 7mph 1027mB
0:00 2636m 5°C 5_6 0cm 1% 6mph 7mph 1027mB
3:00 2650m 5°C 5_6 0cm 22% 6mph 8mph 1026mB
6:00 2575m 5°C 5_5 0cm 56% 5mph 9mph 1024mB
9:00 2595m 11°C 11_8 0cm 60% 8mph 15mph 1023mB
12:00 2714m 18°C 18_9 0cm 56% 9mph 14mph 1021mB
15:00 2842m 18°C 18_9 0cm 18% 9mph 13mph 1020mB
18:00 2938m 18°C 18_4 0cm 11% 4mph 5mph 1021mB
21:00 2876m 8°C 8_3 0cm 0% 3mph 3mph 1023mB
0:00 2933m 7°C 7_3 0cm 9% 3mph 4mph 1022mB
3:00 2937m 6°C 6_4 0cm 30% 4mph 5mph 1022mB
6:00 2959m 6°C 6_3 0cm 28% 3mph 4mph 1021mB
9:00 3008m 12°C 12_3 0cm 24% 3mph 6mph 1020mB
12:00 2830m 19°C 19_6 0cm 36% 6mph 6mph 1018mB
15:00 3007m 18°C 18_6 0cm 11% 6mph 6mph 1018mB
18:00 3191m 18°C 18_4 0cm 8% 4mph 8mph 1018mB
21:00 3231m 10°C 10_1 0cm 82% 1mph 2mph 1020mB
0:00 3163m 9°C 9_2 0cm 81% 2mph 3mph 1020mB
3:00 3204m 8°C 8_4 0cm 60% 4mph 4mph 1019mB
6:00 3186m 8°C 8_2 0cm 36% 2mph 4mph 1019mB
Afternoon 0mm 0.4375 3037m 21°C 21_4 0cm 65% 4mph 10mph 1017mB
Morning 0mm 0.375 3037m 8°C 8_1 0cm 19% 1mph 2mph 1018mB
Afternoon 0.192708mm 9.5 3276m 18°C 18_3 0cm 12% 3mph 3mph 1015mB
Morning 0.00520833mm 0 3235m 9°C 9_2 0cm 0% 2mph 2mph 1015mB
Afternoon 0.317708mm 8.25 3420m 19°C 19_2 0cm 9% 2mph 2mph 1013mB
Morning 0.0208333mm 0.1875 3352m 10°C 10_3 0cm 6% 3mph 5mph 1016mB
Afternoon 0.421875mm 6.4375 3520m 22°C 22_2 0cm 51% 2mph 2mph 1016mB
Morning 0.0520833mm 0 3481m 11°C 11_4 0cm 19% 4mph 6mph 1019mB
Afternoon 1.00521mm 2.1875 3643m 25°C 25_4 0cm 45% 4mph 5mph 1017mB
Morning 0.380208mm 1.5 3654m 12°C 12_2 0cm 42% 2mph 2mph 1017mB
Afternoon 0mm 14.1875 3849m 23°C 23_2 0cm 67% 2mph 3mph 1013mB
Morning 0mm 0 3834m 12°C 12_3 0cm 27% 3mph 5mph 1014mB

16 day outlook at a glance

Forecast issued: 26/05/2019 11:01:46

Chat

Your comments and questions. In a resort? Let us know what it's like!


Characters left 250

For terms and conditions see Readers Comments on the Cookie and privacy policy page.